TimeEST,TemperatureF,Dew PointF,Humidity,Sea Level PressureIn,VisibilityMPH,Wind Direction,Wind SpeedMPH,Gust SpeedMPH,PrecipitationIn,Events,Conditions,WindDirDegrees,DateUTC
12:54 AM,46.0,37.9,73,30.34,10.0,ENE,3.5,-,N/A,,Clear,60,2013-11-04 05:54:00
1:54 AM,43.0,37.0,80,30.36,10.0,NNE,5.8,-,N/A,,Clear,30,2013-11-04 06:54:00
2:54 AM,41.0,36.0,82,30.40,10.0,North,4.6,-,N/A,,Clear,360,2013-11-04 07:54:00
3:54 AM,41.0,36.0,82,30.40,10.0,North,4.6,-,N/A,,Clear,10,2013-11-04 08:54:00
4:54 AM,39.9,36.0,86,30.42,10.0,North,4.6,-,N/A,,Clear,360,2013-11-04 09:54:00
5:54 AM,39.0,35.1,86,30.43,10.0,NNE,5.8,-,N/A,,Clear,20,2013-11-04 10:54:00
6:54 AM,39.0,35.1,86,30.44,10.0,NNE,3.5,-,N/A,,Clear,20,2013-11-04 11:54:00
7:54 AM,45.0,37.0,74,30.47,10.0,NNE,4.6,-,N/A,,Clear,20,2013-11-04 12:54:00
8:54 AM,50.0,34.0,54,30.48,10.0,NE,9.2,-,N/A,,Clear,50,2013-11-04 13:54:00
9:54 AM,55.0,33.1,43,30.51,10.0,NE,9.2,-,N/A,,Clear,50,2013-11-04 14:54:00
10:54 AM,57.0,33.1,40,30.49,10.0,NE,13.8,20.7,N/A,,Clear,50,2013-11-04 15:54:00
11:54 AM,60.1,30.0,32,30.48,10.0,ENE,12.7,20.7,N/A,,Clear,60,2013-11-04 16:54:00
12:54 PM,61.0,30.0,31,30.46,10.0,NE,11.5,20.7,N/A,,Clear,40,2013-11-04 17:54:00
1:54 PM,62.1,32.0,32,30.45,10.0,NE,11.5,17.3,N/A,,Clear,40,2013-11-04 18:54:00
2:54 PM,62.1,32.0,32,30.45,10.0,NE,11.5,16.1,N/A,,Clear,40,2013-11-04 19:54:00
3:54 PM,60.1,30.9,33,30.46,10.0,NNE,9.2,-,N/A,,Clear,30,2013-11-04 20:54:00
4:54 PM,57.0,32.0,39,30.46,10.0,NE,9.2,-,N/A,,Clear,50,2013-11-04 21:54:00
5:54 PM,53.1,32.0,45,30.47,10.0,NE,5.8,-,N/A,,Clear,50,2013-11-04 22:54:00
6:54 PM,50.0,33.1,52,30.48,10.0,NE,6.9,-,N/A,,Clear,40,2013-11-04 23:54:00
7:54 PM,48.0,33.1,56,30.49,10.0,NE,8.1,-,N/A,,Clear,40,2013-11-05 00:54:00
8:54 PM,45.0,33.1,63,30.49,10.0,NE,5.8,-,N/A,,Clear,40,2013-11-05 01:54:00
9:54 PM,44.1,33.1,65,30.50,10.0,NNE,6.9,-,N/A,,Clear,30,2013-11-05 02:54:00
10:54 PM,44.1,32.0,63,30.50,10.0,NE,5.8,-,N/A,,Clear,40,2013-11-05 03:54:00
11:54 PM,43.0,34.0,71,30.49,10.0,NE,8.1,-,N/A,,Clear,40,2013-11-05 04:54:00